Weather Roundup
Issued by NWS Chicago, IL

Home | Current Version | Previous Version | Text Only | Print | Product List | Glossary On
Versions: 1 2 3 4 5 6 7 8 9 10 11 12 13 14 15 16 17 18 19 20 21 22 23 24 25 26 27 28 29 30 31 32 33 34 35 36 37 38 39 40 41 42 43 44 45 46 47 48 49 50
000
NZUS59 KLOT 241510
HRRLOT

CHICAGO AREA WEATHER ROUNDUP
NATIONAL WEATHER SERVICE CHICAGO/ROMEOVILLE IL
1000 AM CDT THU JUL 24 2014

NOTE: "FAIR" INDICATES FEW OR NO CLOUDS BELOW 12,000 FEET WITH NO
SIGNIFICANT WEATHER AND/OR OBSTRUCTIONS TO VISIBILITY.

* THESE STATIONS ARE NOT UNDER NWS QUALITY CONTROL. THEY ALSO MAY NOT
  REPORT WEATHER SUCH AS PRECIPITATION OR FOG.

ILZ005-006-012>014-019>023-241600-
NORTHEAST ILLINOIS

CITY           SKY/WX    TMP DP  RH WIND       PRES   REMARKS
OHARE          MOSUNNY   68  52  56 NE12      30.16F
MIDWAY         MOSUNNY   70  57  63 NE12      30.16F
AURORA         SUNNY     70  51  51 NE10      30.18S
LANSING*       SUNNY     66  56  70 N7        30.16F
JOLIET*        SUNNY     68  53  58 NE9       30.17S
WAUKEGAN       SUNNY     65  55  70 NE9       30.17F
DUPAGE AIRPORT SUNNY     70  52  52 NE10      30.17F
WHEELING       SUNNY     68  54  60 NE9       30.18F
KANKAKEE*      PTSUNNY   68  58  71 NE12      30.15F
MORRIS*        SUNNY     70  56  61 NE3       30.16F
LEWIS AIRPORT* MOSUNNY   69  53  58 E10G16    30.17S
NORTHERLY IS     N/A     64  57  78 NE10        N/A
$$

WIZ051-052-058>065-066-070>072-241600-
SOUTHEAST WISCONSIN

CITY           SKY/WX    TMP DP  RH WIND       PRES   REMARKS
MILWAUKEE      SUNNY     66  52  60 NE9       30.18F
KENOSHA*       SUNNY     67  53  61 E10       30.18F
RACINE*        SUNNY     65  55  70 NE9       30.20F
BURLINGTON     SUNNY     65  50  56 NE8       30.18S
WAUKESHA       SUNNY     64  48  55 NE6       30.19F
WEST BEND      SUNNY     64  45  48 NE5       30.19F
$$

INZ001>003-010>013-019-020-241600-
NORTHWEST INDIANA

CITY           SKY/WX    TMP DP  RH WIND       PRES   REMARKS
GARY*          MOSUNNY   68  61  77 NE9       30.17S
MICHIGAN CITY* NOT AVBL
RENSSELAER*    NOT AVBL
VALPARAISO     SUNNY     70  53  54 NE8       30.16S
$$

LMZ740>746-241600-
SOUTHERN LAKE MICHIGAN

STATION/POSITION TIME  SKY/WX   TEMP WIND        PRES    VSBY
                                AIR  DIR/SP/G
                 (UTC)          (F)  (DEG/KT/KT) (MB)    (MI)
HARRISON CRIB    1500            61   20/ 14/ 16   N/A
BURNHAM HARBOR   1500            64   10/ 10/ 12   N/A
CALUMET HARBOR   1500            64   10/  9/ 12 1020.3F
BURNS HARBOR     NOT AVBL
MICHIGAN CITY    1500            65  360/  9/ 11   N/A
$$

ABBREVIATIONS USED IN REMARKS
   TC - TEMPERATURE IN CELSIUS
  WCI - WIND CHILL INDEX
   HX - HEAT INDEX
  VSB - VISIBILITY
$$


USA.gov is the U.S. government's official web portal to all federal, state and local government web resources and services.